Beaufort, NC

5:34 PM EST on January 19, 2018 (GMT -0500)
Smith

Weather History for KMRH - January, 2014

Change the Weather History Date:

Friday, January 3, 2014

  Actual Average Record
Temperature  
Mean Temperature 40 °F -  
Max Temperature 52 °F 56 °F 71 °F (1952)
Min Temperature 28 °F 36 °F 19 °F (2018)
Degree Days  
Heating Degree Days 25    
Moisture  
Dew Point 26 °F    
Average Humidity 62    
Maximum Humidity 93    
Minimum Humidity 41    
Precipitation  
Precipitation 0.01 in - - ()
Sea Level Pressure  
Sea Level Pressure 30.06 in    
Wind  
Wind Speed 19 mph (NNW)    
Max Wind Speed 30 mph    
Max Gust Speed 40 mph    
Visibility 10 miles    
Events Rain    
Averages and records for this station are not official NWS values.
T = Trace of Precipitation, MM = Missing Value Source: NWS Daily Summary

Daily Weather History Graph

Daily Weather History Graph

Search for Another Location

Airport or City:

Trip Planner

Search our weather history database for the weather conditions in past years. The results will help you decide how hot, cold, wet, or windy it might be!

Date:

Astronomy

Jan. 03, 2014 Rise Set
Actual Time 7:14 AM EST 5:08 PM EST
Civil Twilight 6:46 AM EST 5:36 PM EST
Nautical Twilight 6:14 AM EST 6:07 PM EST
Astronomical Twilight 5:44 AM EST 6:38 PM EST
Moon 8:45 AM EST (1/3) 8:06 PM EST (1/3)
Length of Visible Light 10h 49m
Length of Day
9h 54m
Waxing Crescent, 8% of the Moon is Illuminated
Jan 3
Waxing Crescent
Jan 7
First Quarter
Jan 15
Full
Jan 24
Last Quarter
Jan 30
New

Hourly Weather History & Observations

Time (EST) Temp. Windchill Dew Point Humidity Pressure Visibility Wind Dir Wind Speed Gust Speed Precip Events Conditions
12:45 AM 52.0 °F - 50.0 °F 93% 29.56 in 10.0 mi West 18.4 mph - 0.01 in   Overcast
12:58 AM 52.0 °F - 50.0 °F 93% 29.58 in 8.0 mi WNW 25.3 mph 33.4 mph 0.01 in Rain Light Rain
1:58 AM 50.0 °F - 46.0 °F 86% 29.62 in 10.0 mi NW 16.1 mph - 0.00 in   Overcast
2:08 AM 50.0 °F - 46.0 °F 86% 29.63 in 10.0 mi NW 18.4 mph 24.2 mph N/A   Mostly Cloudy
2:24 AM 50.0 °F - 46.0 °F 86% 29.63 in 10.0 mi NW 17.3 mph - N/A   Overcast
2:48 AM 48.0 °F - 43.0 °F 83% 29.66 in 10.0 mi NW 20.7 mph 31.1 mph N/A   Overcast
2:58 AM 48.0 °F - 42.1 °F 80% 29.67 in 10.0 mi NW 19.6 mph 29.9 mph N/A   Overcast
3:58 AM 46.0 °F 37.6 °F 37.9 °F 73% 29.73 in 10.0 mi NW 24.2 mph 32.2 mph N/A   Mostly Cloudy
4:58 AM 44.1 °F 35.2 °F 34.0 °F 68% 29.78 in 10.0 mi NW 23.0 mph 33.4 mph N/A   Mostly Cloudy
5:58 AM 41.0 °F 30.5 °F 30.9 °F 67% 29.85 in 10.0 mi NW 26.5 mph 34.5 mph N/A   Mostly Cloudy
6:58 AM 37.9 °F 26.8 °F 26.1 °F 62% 29.93 in 10.0 mi NW 24.2 mph 38.0 mph N/A   Overcast
7:58 AM 35.1 °F 22.5 °F 23.0 °F 61% 30.01 in 10.0 mi NW 26.5 mph 33.4 mph N/A   Mostly Cloudy
8:58 AM 35.1 °F 22.7 °F 21.9 °F 59% 30.07 in 10.0 mi NNW 25.3 mph 34.5 mph N/A   Scattered Clouds
9:58 AM 34.0 °F 20.3 °F 19.9 °F 56% 30.13 in 10.0 mi NNW 29.9 mph 40.3 mph N/A   Clear
10:58 AM 35.1 °F 22.2 °F 19.9 °F 54% 30.16 in 10.0 mi NNW 27.6 mph 35.7 mph N/A   Clear
11:58 AM 37.0 °F 27.4 °F 19.0 °F 48% 30.17 in 10.0 mi North 17.3 mph 26.5 mph N/A   Clear
12:58 PM 37.0 °F 26.4 °F 16.0 °F 42% 30.20 in 10.0 mi NNW 20.7 mph 29.9 mph N/A   Clear
1:58 PM 37.9 °F 28.2 °F 18.0 °F 45% 30.24 in 10.0 mi North 18.4 mph 26.5 mph N/A   Clear
2:58 PM 37.0 °F 27.4 °F 15.1 °F 41% 30.26 in 10.0 mi North 17.3 mph 28.8 mph N/A   Clear
3:58 PM 36.0 °F 26.0 °F 14.0 °F 41% 30.30 in 10.0 mi North 17.3 mph 24.2 mph N/A   Clear
4:58 PM 34.0 °F 26.0 °F 14.0 °F 44% 30.34 in 10.0 mi North 10.4 mph - N/A   Clear
5:58 PM 30.9 °F 23.5 °F 14.0 °F 50% 30.38 in 10.0 mi NNE 8.1 mph - N/A   Clear
6:58 PM 30.0 °F 23.2 °F 14.0 °F 51% 30.41 in 10.0 mi NNE 6.9 mph - N/A   Clear
7:58 PM 30.0 °F 21.7 °F 14.0 °F 51% 30.43 in 10.0 mi North 9.2 mph - N/A   Clear
8:58 PM 28.0 °F 20.8 °F 14.0 °F 56% 30.47 in 10.0 mi North 6.9 mph - N/A   Clear
9:58 PM 28.0 °F 20.0 °F 14.0 °F 56% 30.47 in 10.0 mi NNE 8.1 mph - N/A   Clear
10:58 PM 28.0 °F 22.8 °F 14.0 °F 56% 30.47 in 10.0 mi NNE 4.6 mph - N/A   Clear
11:58 PM 28.9 °F 21.9 °F 12.9 °F 51% 30.47 in 10.0 mi NNE 6.9 mph - N/A   Clear